TimePDT,TemperatureF,Dew PointF,Humidity,Sea Level PressureIn,VisibilityMPH,Wind Direction,Wind SpeedMPH,Gust SpeedMPH,PrecipitationIn,Events,Conditions,WindDirDegrees,DateUTC
12:56 AM,59.9,26.1,27,30.09,10.0,South,9.2,-,N/A,,Clear,190,2013-10-26 07:56:00
1:56 AM,56.8,26.1,31,30.11,10.0,South,6.9,-,N/A,,Clear,190,2013-10-26 08:56:00
2:56 AM,59.0,25.2,27,30.12,10.0,South,8.1,-,N/A,,Clear,180,2013-10-26 09:56:00
3:56 AM,56.8,26.1,31,30.12,10.0,Calm,Calm,-,N/A,,Clear,0,2013-10-26 10:56:00
4:56 AM,54.9,26.1,33,30.13,10.0,SSE,6.9,-,N/A,,Clear,160,2013-10-26 11:56:00
5:56 AM,54.9,27.1,34,30.15,10.0,SSE,9.2,-,N/A,,Clear,160,2013-10-26 12:56:00
6:56 AM,54.9,27.1,34,30.17,10.0,SSE,9.2,-,N/A,,Clear,160,2013-10-26 13:56:00
7:56 AM,56.8,28.0,33,30.19,10.0,SSE,8.1,-,N/A,,Clear,160,2013-10-26 14:56:00
8:56 AM,66.9,30.0,25,30.19,10.0,Calm,Calm,-,N/A,,Clear,0,2013-10-26 15:56:00
9:56 AM,72.9,27.1,18,30.19,10.0,Calm,Calm,-,N/A,,Clear,0,2013-10-26 16:56:00
10:56 AM,73.9,28.0,18,30.19,10.0,Calm,Calm,-,N/A,,Clear,0,2013-10-26 17:56:00
11:56 AM,77.9,28.0,16,30.18,10.0,North,3.5,-,N/A,,Clear,360,2013-10-26 18:56:00
12:56 PM,79.9,30.0,16,30.14,10.0,ENE,4.6,-,N/A,,Clear,60,2013-10-26 19:56:00
1:56 PM,81.9,31.1,16,30.11,10.0,NNE,5.8,-,N/A,,Clear,30,2013-10-26 20:56:00
2:56 PM,81.9,29.1,15,30.09,10.0,Variable,5.8,-,N/A,,Clear,0,2013-10-26 21:56:00
3:56 PM,81.9,30.0,15,30.07,10.0,Calm,Calm,-,N/A,,Clear,0,2013-10-26 22:56:00
4:56 PM,82.9,30.0,15,30.06,10.0,Calm,Calm,-,N/A,,Clear,0,2013-10-26 23:56:00
5:56 PM,79.0,30.0,17,30.06,10.0,Calm,Calm,-,N/A,,Clear,0,2013-10-27 00:56:00
6:56 PM,70.0,32.0,25,30.07,10.0,Calm,Calm,-,N/A,,Clear,0,2013-10-27 01:56:00
7:56 PM,68.0,32.0,26,30.07,10.0,Calm,Calm,-,N/A,,Clear,0,2013-10-27 02:56:00
8:56 PM,64.9,32.9,30,30.06,10.0,SSE,6.9,-,N/A,,Clear,160,2013-10-27 03:56:00
9:56 PM,63.0,30.0,29,30.06,10.0,SSE,8.1,-,N/A,,Clear,160,2013-10-27 04:56:00
10:56 PM,61.0,27.1,28,30.05,10.0,SSE,8.1,-,N/A,,Clear,160,2013-10-27 05:56:00
11:56 PM,59.9,29.1,31,30.03,10.0,SSE,10.4,-,N/A,,Clear,160,2013-10-27 06:56:00